Overview Statistics Trail Chart Weather Telemetry Raw packets
 

This is the latest recevied weather packets stored in our database for station/object W7TRD. If no packets are shown the sender has not sent any weather packets the latest 10 day(s).

<< 56 57 58 59 60 61 62 >>
Time Temp. Humidity Pressure Rain* Wind** Luminosity Snow
1788237428 22.78° C 58% 1008.9 hPa 0 mm - 0 W/m² -
1788237123 23.33° C 57% 1008.9 hPa 0 mm - 0 W/m² -
1788236822 23.33° C 56% 1008.8 hPa 0 mm - 0 W/m² -
1788236517 23.89° C 55% 1008.7 hPa 0 mm - 0 W/m² -
1788236214 23.89° C 55% 1008.8 hPa 0 mm - 0 W/m² -
1788235913 23.89° C 55% 1008.7 hPa 0 mm - 0 W/m² -
1788235608 24.44° C 54% 1008.4 hPa 0 mm - 0 W/m² -
1788235307 24.44° C 53% 1008.6 hPa 0 mm - 0 W/m² -
1788235005 25° C 52% 1008.5 hPa 0 mm - 0 W/m² -
1788234705 25° C 51% 1008.4 hPa 0 mm - 0 W/m² -
1788234405 25° C 51% 1008.4 hPa 0 mm - 0 W/m² -
1788234105 25° C 51% 1008.4 hPa 0 mm - 0 W/m² -
1788233804 25.56° C 50% 1008.2 hPa 0 mm - 0 W/m² -
1788233504 24.44° C 53% 1008.1 hPa 0 mm - 0 W/m² -
1788233202 25° C 52% 1008.1 hPa 0 mm - 0 W/m² -
1788232897 25° C 51% 1008.1 hPa 0 mm - 0 W/m² -
1788232592 25.56° C 51% 1007.9 hPa 0 mm - 0 W/m² -
1788232289 25.56° C 50% 1008 hPa 0 mm - 0 W/m² -
1788231983 25.56° C 50% 1007.8 hPa 0 mm - 0 W/m² -
1788231678 25.56° C 50% 1007.8 hPa 0 mm - 1 W/m² -
1788231378 26.11° C 49% 1007.9 hPa 0 mm - 1 W/m² -
1788231073 26.67° C 48% 1007.7 hPa 0 mm - 2 W/m² -
1788230773 26.67° C 47% 1007.9 hPa 0 mm - 4 W/m² -
1788230472 26.67° C 46% 1007.6 hPa 0 mm - 6 W/m² -
1788230170 27.22° C 45% 1007.7 hPa 0 mm - 9 W/m² -

* Rain latest hour (hover to see other rain measurements)
** Current wind speed in m/s (hover to see current wind gust speed)